Regional Weather Roundup
Issued by NWS

Home | Current Version | Previous Version | Text Only | Print | Product List | Glossary On
Versions: 1 2 3 4 5 6 7 8 9 10 11 12 13 14 15 16 17 18 19 20 21 22 23 24 25 26 27 28 29 30 31 32 33 34 35 36 37 38 39 40 41 42 43 44 45 46 47 48 49 50
000
ASHW40 PHFO 291310
RWRHI

WEATHER ROUNDUP FOR HAWAII
NATIONAL WEATHER SERVICE HONOLULU HI
300 AM HST TUE JUL 29 2014

THIS IS AN AUTOMATED REPORT THAT HAS NOT BEEN QUALITY CONTROLLED.

NOTE..."FAIR" INDICATES FEW OR NO CLOUDS BELOW 12,000 FEET WITH NO
SIGNIFICANT WEATHER AND/OR OBSTRUCTIONS TO VISIBILITY.

* - THESE SITES REPORT LIMITED FIELDS

HIZ001>004-291400-
KAUAI-NIIHAU-

CITY           SKY/WX    TMP DP  RH WIND       PRES   REMARKS
LIHUE APT      PTCLDY    78  69  73 E13       30.05F
PORT ALLEN*      N/A     77 N/A N/A E8          N/A
POIPU*           N/A     77 N/A N/A NE8G15      N/A
PRINCEVILLE*   NOT AVBL
KOKOLE POINT*  NOT AVBL
MOLOAA DAIRY*  NOT AVBL
WAIMEA HTS*    NOT AVBL
PUU OPAE*      NOT AVBL
PUU LUA*       NOT AVBL
MAKAHA RIDGE*  NOT AVBL
$$

HIZ005>011-291400-
OAHU-

CITY           SKY/WX    TMP DP  RH WIND       PRES   REMARKS
HONOLULU       PTCLDY    78  67  68 NE7       30.02S
KALAELOA       CLEAR     71  66  84 CALM      30.04S
KANEOHE MCB    PTCLDY    72  67  85 VRB6      30.04S
WHEELER FIELD  FAIR      69  65  88 W5        30.04F
BELLOWS*       NOT AVBL
KAHUKU*        NOT AVBL
WHEELER*       NOT AVBL
WAIANAE HARBOR NOT AVBL
DILLINGHAM*      N/A     64  64 100 CALM        N/A
KAHUKU TRN*      N/A     73  70  88 E9G18       N/A
KAWAILOA*      NOT AVBL
KII*             N/A     79  72  78 CALM        N/A
MAKUA RANGE*     N/A     72  64  78 E5          N/A
OAHU FOREST NW NOT AVBL
SCHOFIELD BRK*   N/A     70  66  88 MISG        N/A
SCHOFIELD S*   NOT AVBL
WAIANAE VLY*   NOT AVBL
KUAOKALA*      NOT AVBL
HONOULIUULI*   NOT AVBL
MOKUOLOE IS*     N/A    N/A N/A N/A MISG        N/A
PALEHUA*       NOT AVBL
WAIAWA PHB*    NOT AVBL
$$

HIZ012>013-291400-
MOLOKAI-

CITY           SKY/WX    TMP DP  RH WIND       PRES   REMARKS
MOLOKAI AIRPT  CLEAR     74  68  81 N5        30.03F
KALAUPAPA      NOT AVBL
MAKAPULAPAI*   NOT AVBL
MOLOKAI 1*     NOT AVBL
PUU ALII*      NOT AVBL
$$

HIZ016-291400-
KAHOOLAWE-

CITY           SKY/WX    TMP DP  RH WIND       PRES   REMARKS
KAHOOLAWE*     NOT AVBL
HAKIOAWA*      NOT AVBL
HONOKANAIA*      N/A     77  68  72 NE15G30   30.02F
KANELOA*         N/A     75  68  78 E18G30    30.12S
KEALIALALO*    NOT AVBL
LUA MAKIKA*    NOT AVBL
$$

HIZ014>015-291400-
LANAI-

CITY           SKY/WX    TMP DP  RH WIND       PRES   REMARKS
LANAI CITY     FAIR      69  68  97 NE5       30.08S
LANAI 1*       NOT AVBL
$$

HIZ017>028-291400-
MAUI-

CITY           SKY/WX    TMP DP  RH WIND       PRES   REMARKS
KAHULUI        CLEAR     70  65  84 CALM      30.02S
KAPALUA-W MAUI NOT AVBL
HANA AIRPORT   MOCLDY    73  68  83 CALM      30.06S
HANA*          NOT AVBL
HALEAKALA SUMM   N/A     41  27  56 W1G20       N/A
MAALAEA BAY*   NOT AVBL
HALEAKALA*     NOT AVBL
KAUPO GAP*     NOT AVBL
KULA 1*          N/A    N/A N/A N/A E7          N/A
$$

HIZ023>026-291400-
BIG ISLAND OF HAWAII COAST AND LOWER SLOPES-

CITY           SKY/WX    TMP DP  RH WIND       PRES   REMARKS
KAILUA KONA    CLOUDY    80  68  66 N6        29.98S
HILO           CLEAR     71  65  81 CALM      30.04S
HONOKAA*       NOT AVBL
KAWAIHAE MWT*  NOT AVBL
KAWAIHAE*        N/A     81 N/A N/A NE12        N/A
SOUTH POINT*   NOT AVBL
UPOLU AIRPORT* NOT AVBL
KAMUELA*       MOSUNNY   64  61  88 NE7       30.12F
HAKALAU*         N/A     45  34  65 W5          N/A
KALOKO-HONOKO* NOT AVBL
PALI 2*          N/A     64  59  82 N13G25      N/A
KEALAKOMO*       N/A     77  70  78 NE10G16     N/A
KAUPULEHU*     NOT AVBL
KAPAPALA*        N/A     60  57  91 NW3         N/A
LOWER KAHUKU*  NOT AVBL
PUHE CS*       NOT AVBL
PUHO CS*       NOT AVBL
PTA KEAMUKU*     N/A     61  57  88 NE6         N/A
WAIKOLOA*      NOT AVBL
$$

HIZ027>028-291400-
BIG ISLAND OF HAWAII INTERIOR AND SUMMMITS-

CITY           SKY/WX    TMP DP  RH WIND       PRES   REMARKS
BRADSHAW FIELD CLOUDY    49  38  65 SE3       30.35F
MK VISITOR CEN NOT AVBL
MAUNA KEA*       N/A     37 -20   8 SE9         N/A
MAUNA LOA*     NOT AVBL
MAUNA LOA 1*   NOT AVBL
PTA KIPUKA*      N/A     52  50  93 E3          N/A
PTA RANGE 17*    N/A     54  43  66 E7          N/A
PTA WEST*        N/A     54  50  87 SE10        N/A
NENE CABIN*    NOT AVBL
AHUMOA*        NOT AVBL
PTA PORTABLE*  NOT AVBL
PUU MALI*      NOT AVBL
$$

HIC003-291400-
NORTHWEST ISLANDS-

CITY           SKY/WX    TMP DP  RH WIND       PRES   REMARKS
MIDWAY ISLAND  PTCLDY    81  75  83 S14       30.02F
MIDWAY NOS*    NOT AVBL
FRENCH FRIGATE NOT AVBL
$$

PHZ110>124-180-291400-
BUOY REPORTS

STATION/POSITION TIME  TEMP    WIND        PRES    WAVE   SWELL
                       AIR SEA DIR/SP/G            HT/PER HT/DIR
                 (UTC) (F)     (DEG/KT/KT) (MB)    (FT/S) (FT/D)
BUOY 51001       NOT AVBL
BUOY 51101       1300   79 80   80/ 10/ 12 1017.8F   4/ 9   3/110
BUOY 51100       1300   76 78   90/ 12     1018.0
BUOY 51003       1200   81 81   60/ 14/ 17 1015.8F   7/10   5
BUOY 51004       1151   79 80   70/ 14/ 16 1014.6F   8/ 9   7/110
BARBERS PT BUOY  NOT AVBL
WAIMEA BAY BUOY  1300      80                N/A     2/13
KAILUA BAY BUOY  1300      80                N/A     5/ 7   2/110
LANAI BUOY       1300      81                N/A     2/15   2/200
BARBERS PT 2     1300      81                N/A     4/15   2/210
PAUWELA MAUI     1300      79                N/A     5/ 9   2/100
HILO             NOT AVBL
KANEOHE BAY BUOY 1300      79                N/A     4/ 6
HANALEI KAUAI    NOT AVBL
KAHULUI HARBOR   1300   75 80  320/  5/  5 1016.2F
HONOLULU HARBOR  1300   79      60/  3/  6 1016.9S
KILO NALU        NOT AVBL
HILO HARBOR      1300   72     190/  3/  4 1016.7F
MOKUOLOE         1300      82              1017.3S
NAWILIWILI       1300      82                N/A
WHOTS BUOY       NOT AVBL
BUOY 51028       NOT AVBL
$$

......................KEY........................................
  SKY/WX - SKY CONDITIONS/PRESENT WEATHER
  TMP    - TEMPERATURE IN FAHRENHEIT
  DWPT   - DEWPOINT IN FAHRENHEIT
  RH     - RELATIVE HUMIDITY IN PERCENT
  WIND   - DIRECTION AND SPEED /MPH FOR ISLANDS...KTS FOR BUOYS/
  PRES   - MEAN SEA LEVEL PRESSURE IN INCHES OF HG
  VSB    - VISIBILITY IN MILES
  HX     - HEAT INDEX
  WCI    - WIND CHILL INDEX
  VRB    - VARIABLE WIND DIRECTION
  N/A    - NOT AVAILABLE


USA.gov is the U.S. government's official web portal to all federal, state and local government web resources and services.